This demonstration page uses our WeatherBlox Daily Observations layout. Learn more.

Left ArrowRight Arrow

Hourly Observations for March 4, 2020

Temp ( °F °C ) Dew Point ( °F °C ) Humidity (%) Winds ( mph kmh ) Pressure ( in mb ) Visibility ( mi km ) Precip ( " mm )
12:53 am 00:53 Clear 36 2.2 30 -1.1 79 79 N N/A 29.91 1013 10 16.0934 N/A
1:53 am 01:53 Clear 33 0.6 29 -1.7 85 85 N N/A 29.92 1013 10 16.0934 N/A
2:53 am 02:53 Clear 32 undefined 28 -2.2 85 85 N N/A 29.93 1013 10 16.0934 N/A
3:53 am 03:53 Clear 31 -0.6 28 -2.2 89 89 N N/A 29.93 1013 10 16.0934 N/A
4:53 am 04:53 Clear 31 -0.6 27 -2.8 85 85 N N/A 29.93 1014 10 16.0934 N/A
5:53 am 05:53 Clear 30 -1.1 27 -2.8 88 88 N N/A 29.94 1014 10 16.0934 N/A
6:53 am 06:53 Clear 30 -1.1 27 -2.8 88 88 N N/A 29.93 1013 10 16.0934 N/A
7:53 am 07:53 Sunny 35 1.7 29 -1.7 78 78 E 3 6 29.92 1013 10 16.0934 N/A
8:53 am 08:53 Cloudy 42 5.6 34 1.1 73 73 N N/A 29.9 1013 10 16.0934 N/A
9:53 am 09:53 Cloudy 50 10 31 -0.6 48 48 VRB 6 9 29.92 1013 10 16.0934 N/A
10:53 am 10:53 Cloudy 55 12.8 30 -1.1 38 38 SSW 9 15 29.88 1012 10 16.0934 N/A
11:53 am 11:53 Cloudy 56 13.3 30 -1.1 37 37 WSW 9 15 29.88 1012 10 16.0934 N/A
12:53 pm 12:53 Cloudy 59 15 32 undefined 36 36 W 9 15 29.87 1012 10 16.0934 N/A
1:53 pm 13:53 Partly Cloudy 62 16.7 33 0.6 34 34 W 14 22 29.86 1011 10 16.0934 N/A
2:53 pm 14:53 Sunny 60 15.6 34 1.1 38 38 WNW 20 31 29.89 1012 10 16.0934 N/A
3:53 pm 15:53 Sunny 58 14.4 36 2.2 44 44 NW 16 26 29.96 1014 10 16.0934 N/A
4:53 pm 16:53 Sunny 56 13.3 33 0.6 42 42 WNW 14 22 29.98 1015 10 16.0934 N/A
5:53 pm 17:53 Sunny 52 11.1 27 -2.8 38 38 WNW 13 20 30.01 1016 10 16.0934 N/A
6:53 pm 18:53 Clear 48 8.9 29 -1.7 48 48 WNW 9 15 30.02 1017 10 16.0934 N/A
7:53 pm 19:53 Clear 45 7.2 30 -1.1 56 56 NW 9 15 30.08 1019 10 16.0934 N/A
8:53 pm 20:53 Clear 42 5.6 30 -1.1 62 62 NNW 5 7 30.08 1019 10 16.0934 N/A
9:53 pm 21:53 Clear 42 5.6 29 -1.7 60 60 N 3 6 30.1 1019 10 16.0934 N/A
10:53 pm 22:53 Clear 40 4.4 28 -2.2 63 63 NNE 3 6 30.11 1020 10 16.0934 N/A
11:53 pm 23:53 Clear 32 undefined 27 -2.8 82 82 N N/A 30.13 1020 10 16.0934 N/A

Powered by AerisWeather